Regional Weather Roundup
Issued by NWS

Home | Current Version | Previous Version | Graphics & Text | Print | Product List | Glossary On
Versions: 1 2 3 4 5 6 7 8 9 10 11 12 13 14 15 16 17 18 19 20 21 22 23 24 25 26 27 28 29 30 31 32 33 34 35 36 37 38 39 40 41 42 43 44 45 46 47 48 49 50
000
ASUS43 KMPX 012010
RWRMN
WEATHER ROUNDUP FOR MINNESOTA
NATIONAL WEATHER SERVICE TWIN CITIES/CHANHASSEN MN
200 PM CST SUN FEB 01 2015


NOTE: "FAIR" INDICATES FEW OR NO CLOUDS BELOW 12,000 FEET WITH NO
SIGNIFICANT WEATHER AND/OR OBSTRUCTIONS TO VISIBILITY. N/A MEANS
CURRENT SKY AND/OR WEATHER CONDITIONS ARE NOT AVAILABLE.

MNZ060>063-068>070-012100-
   Twin Cities Metro

CITY           SKY/WX    TMP DP  RH WIND       PRES   REMARKS
TWIN CITIES    PTSUNNY   17   3  54 N18G25    30.21F WCI   1
ST PAUL        CLOUDY    17   3  54 N17G25    30.23F WCI   1
CRYSTAL        PTSUNNY   17   3  54 N16G23    30.22F WCI   2
BLAINE         PTSUNNY   18   5  57 N17G25    30.22F WCI   2
LAKEVILLE      CLOUDY    14   3  62 N16       30.18F WCI  -2
EDEN PRAIRIE   PTSUNNY   17   3  54 N12G24    30.19F WCI   4
SOUTH ST PAUL  CLOUDY    18   3  52 N15G21    30.20F WCI   3
LAKE ELMO      FAIR      18   5  57 N14G25    30.21F WCI   4
$$
MNZ001>005-007-008-013>017-022>024-027-028-012100-
   Northwest Minnesota

CITY           SKY/WX    TMP DP  RH WIND       PRES   REMARKS
BEMIDJI        SUNNY      0 -14  51 N7        30.36F WCI -13
HALLOCK        SUNNY     -6 -15  65 W5        30.50F WCI -17
ROSEAU         SUNNY     -4 -15  59 W3        30.45F
WARROAD        SUNNY     -6 -17  59 S6        30.43F WCI -18
THIEF RVR FALL SUNNY     -2 -11  65 NW9       30.45F WCI -18
CROOKSTON      SUNNY     -2 -11  65 N12G20    30.50F WCI -20
FOSSTON        SUNNY      3 -11  51 N12       30.41F WCI -13
DETROIT LAKES  SUNNY      7  -8  51 N10       30.36F WCI  -8
MOORHEAD       SUNNY      5 -11  47 N17       30.45F WCI -14
PARK RAPIDS    SUNNY      5 -15  39 N10       30.32F WCI -10
MAHNOMEN       FAIR       2 -12  54 N10G16    30.40F WCI -14
$$
MNZ006-009>011-018-025>026-012100-
   North Central Minnesota

CITY           SKY/WX    TMP DP  RH WIND       PRES   REMARKS
BAUDETTE       SUNNY     -6 -18  56 N9        30.41F WCI -23
FLAG ISLAND    SUNNY     -8 -17  65 N5        30.42F WCI -19
INTL FALLS     SUNNY      0 -15  49 N6        30.38F WCI -12
WASKISH        SUNNY      0 -11  60 CALM      30.40F
BIG FORK       SUNNY      3 -15  43 N6        30.35F WCI  -8
LONGVILLE      SUNNY      5 -15  39 NE6       30.33F WCI  -6
GRAND RAPIDS   MOSUNNY    3 -13  47 NW13      30.30F WCI -14
CRANE LAKE     SUNNY     -2 -17  50 N6        30.39F WCI -14
ORR            SUNNY      1 -18  39 NW3       30.31F
COOK           SUNNY      1 -17  42 N5        30.33F WCI  -8
WALKER         FAIR       2 -14  46 N7        30.34F WCI -10
$$
MNZ012-019>021-037-012100-
   Northeast Minnesota

CITY           SKY/WX    TMP DP  RH WIND       PRES   REMARKS
DULUTH         MOSUNNY    8 -14  35 N10       30.26F WCI  -6
ELY            SUNNY      1 -17  42 NE7       30.30F WCI -11
HIBBING        SUNNY      5 -15  39 N8        30.31F WCI  -8
EVELETH        SUNNY      3 -15  43 NE8       30.31F WCI -10
DULUTH HARBOR  MOSUNNY   12  -6  44 NE12      30.35F WCI  -2
TWO HARBORS    SUNNY     14  -9  34 NE3       30.27F
SILVER BAY     MOSUNNY   10 -15  31 NE6       30.28F WCI   1
GRAND MARAIS     N/A     10  -7  46 CALM      30.34F
G MARAIS ARPRT SUNNY      1 -18  39 NW6       30.22F WCI -10
$$
MNZ029>031-032-039>041-046>048-054>057-064-012100-
   West Central Minnesota

CITY           SKY/WX    TMP DP  RH WIND       PRES   REMARKS
FERGUS FALLS   SUNNY      7 -11  43 N10G17    30.41F WCI  -8
WHEATON        SUNNY      3  -8  60 NW17G23   30.41F WCI -17
MORRIS         SUNNY     12   0  57 N17       30.32F WCI  -5
ALEXANDRIA     SUNNY     10  -2  58 N12       30.29F WCI  -5
ELBOW LAKE     FAIR       9  -5  53 N14       30.34F WCI  -8
WADENA         SUNNY      7 -13  40 N10       30.32F WCI  -8
GLENWOOD       SUNNY     12   1  62 N15       30.29S WCI  -4
APPLETON       SUNNY     14   0  52 N17       30.33F WCI  -3
BENSON         PTSUNNY   16   0  48 NE16      30.31S WCI   0
ORTONVILLE     SUNNY      7  -6  56 NW17      30.35F WCI -12
MADISON        SUNNY     14   1  57 N23G29    30.33F WCI  -5
WILLMAR        FAIR      16   1  53 N16G22    30.27S WCI   0
$$
MNZ033>034-036-042>043-049>051-058-059-012100-
   Central Minnesota

CITY           SKY/WX    TMP DP  RH WIND       PRES   REMARKS
ST CLOUD       SUNNY     14  -1  51 N14G25    30.26F WCI  -1
SAUK CENTRE    FAIR      12  -1  55 N13       30.28F WCI  -2
PAYNESVILLE    SUNNY     12  -2  54 NW16G23   30.26F WCI  -5
AITKIN         SUNNY     10 -15  31 N9        30.29F WCI  -2
PINE RIVER     SUNNY      3 -11  51 N9        30.35F WCI -11
BRAINERD       SUNNY      9 -14  34 N10       30.30F WCI  -5
STAPLES        SUNNY      7 -17  33 NE9       30.31F WCI  -7
LONG PRAIRIE   FAIR      12  -2  52 NW8G17    30.28F WCI   1
LITTLE FALLS   SUNNY     12  -6  44 N9        30.29F WCI   0
LITCHFIELD     MOSUNNY   16   1  53 NE16G24   30.24F WCI   0
BUFFALO        MOSUNNY   17   4  56 N14G22    30.25F WCI   3
MAPLE LAKE     MOSUNNY   17   5  57 N14G20    30.25F WCI   3
$$
MNZ037-044-045-052-053-012100-
   East Central Minnesota

CITY           SKY/WX    TMP DP  RH WIND       PRES   REMARKS
PRINCETON      MOSUNNY   18   0  45 N15G23    30.25F WCI   3
MORA           SUNNY     14  -4  44 NE10      30.28F WCI   1
CAMBRIDGE      MOSUNNY   16   3  57 N10G18    30.24F WCI   3
RUSH CITY      PTSUNNY   16   4  58 N15       30.26S WCI   1
MOOSE LAKE     SUNNY     12 -13  31 NE12      30.27F WCI  -2
HINCKLEY       FAIR      16   1  53 N13       30.27S WCI   2
CLOQUET        SUNNY      7 -17  33 N7        30.27F WCI  -5
MCGREGOR       SUNNY     10 -13  34 N13G18    30.30F WCI  -5
$$
MNZ071>073-080-081-089-090-097-098-012100-
   Southwest Minnesota

CITY           SKY/WX    TMP DP  RH WIND       PRES   REMARKS
MONTEVIDEO     MOSUNNY   16   3  57 NE17      30.30F WCI   0
GRANITE FALLS  MOSUNNY   15   4  59 N21       30.29F WCI  -2
CANBY          CLOUDY     8   0  68 NW21G28   30.32F WCI -11
MARSHALL       CLOUDY    12   0  57 N21       30.26F WCI  -6
REDWOOD FALLS  CLOUDY    16   4  59 N15G23    30.25S WCI   1
OLIVIA         MOSUNNY   16   5  62 N17G23    30.25S WCI   0
PIPESTONE      PTSUNNY    7   1  78 N20G29    30.20F WCI -13
WINDOM         LGT SNOW  12   7  79 N28       30.17S WCI  -9
WORTHINGTON    CLOUDY    12   3  67 N23G32    30.17S VSB 1   WCI  -7
JACKSON        CLOUDY    14   9  79 N17G26    30.14S HAZE    WCI  -3
TRACY          CLOUDY    14   7  74 N17G24    30.23S WCI  -3
SLAYTON        CLOUDY    10   5  80 N22       30.19F WCI -10
$$
MNZ065>067-074>077-082>085-091>093-012100-
   South Central Minnesota

CITY           SKY/WX    TMP DP  RH WIND       PRES   REMARKS
MANKATO        CLOUDY   N/A N/A N/A N22       30.15F
NEW ULM        CLOUDY    16   3  57 N14G20    30.19F WCI   1
ST JAMES       CLOUDY    16   7  67 N22       30.19S WCI  -2
FAIRMONT       CLOUDY    14   9  79 N22       30.13R VSB 1   WCI  -4
GLENCOE        PTSUNNY   18   8  66 N13G22    30.21F WCI   4
FARIBAULT      CLOUDY    16   1  53 N20G25    30.15F WCI  -1
OWATONNA       CLOUDY    14   3  62 N23G32    30.12F WCI  -5
WASECA         CLOUDY    14   5  67 N18       30.14S WCI  -3
ALBERT LEA     LGT SNOW  12   9  85 N18G24    30.09R WCI  -5
$$
MNZ078>079-086>088-094>096-012100-
   Southeast Minnesota

CITY           SKY/WX    TMP DP  RH WIND       PRES   REMARKS
ROCHESTER      LGT SNOW  12   5  73 N22       30.08R WCI  -7
RED WING       CLOUDY    16   0  48 NE13G21   30.17F WCI   2
STANTON        CLOUDY    16   4  60 N23       30.15F WCI  -2
DODGE CENTER   CLOUDY    12   7  79 N20G26    30.08F WCI  -6
WINONA         CLOUDY    18   9  68 NE13G18   30.13F WCI   4
AUSTIN         LGT SNOW  12   7  79 N22G28    30.07R WCI  -7
PRESTON        CLOUDY    12   7  80 N14G24    30.05S WCI  -4
$$
ABBREVIATIONS USED IN REMARKS
   TC - TEMPERATURES IN CELSIUS
  WCI - WIND CHILL INDEX
   HX - HEAT INDEX
  VSB - VISIBILITY
$$


USA.gov is the U.S. government's official web portal to all federal, state and local government web resources and services.